TEVEL2-1

Last updated on Fri Dec 19 2025 00:03:12 GMT+0000 (Coordinated Universal Time)

1 63217U 25052H 25352.14603100 .00013938 00000+0 53125-3 0 9997 2 63217 97.4083 243.7192 0005200 59.8889 300.2865 15.26801433 42401
UTC large
Height (km)
Speed (km/s)
/
Latitude / Longitude
Inclination (degrees)
Orbital Period (minutes)
Azimuth
Elevation
Range (km)
Doppler Factor

Next 0 passes for location: London (51.5072 / 0.1276)

Sorry there are no passes over London.